Location: Bagnolo San Vito
(45.0833°N, 10.8833°E)
Time: 22:41:43
(UTC+00:00)

CZ-4 R/B - Pass Details

Date: 03 March 2021
Orbit: 532 x 597 km, 97.7° (Epoch: 17 April)

Event Time Altitude Azimuth Distance (km) Brightness Sun altitude
Rises 18:01:35 0° 173° (S) 2,665 4.7 -10.5°
Reaches altitude 10° 18:03:42 10° 176° (S) 1,782 3.9 -10.9°
Maximum altitude 18:07:30 65° 259° (WSW) 598 1.8 -11.5°
Drops below altitude 10° 18:11:24 10° 341° (NNW) 1,819 4.3 -12.2°
Sets 18:13:34 0° 345° (NNW) 2,726 5.1 -12.6°
